Kenosha, WI

4:16 AM CDT on July 27, 2017 (GMT -0500)
Kenosha Regional

Weather History for KENW - June, 2013

Change the Weather History Date:

Wednesday, June 5, 2013

  Actual Average Record
Temperature  
Mean Temperature 56 °F -  
Max Temperature 61 °F 68 °F 92 °F (1948)
Min Temperature 52 °F 50 °F 39 °F (1948)
Degree Days  
Heating Degree Days 8    
Growing Degree Days 6 (Base 50)    
Moisture  
Dew Point 47 °F    
Average Humidity 71    
Maximum Humidity 83    
Minimum Humidity 56    
Precipitation  
Precipitation 0.06 in - - ()
Sea Level Pressure  
Sea Level Pressure 30.06 in    
Wind  
Wind Speed 7 mph (ENE)    
Max Wind Speed 12 mph    
Max Gust Speed -    
Visibility 10 miles    
Events Rain    
Averages and records for this station are not official NWS values.
T = Trace of Precipitation, MM = Missing Value Source: NWS Daily Summary

Daily Weather History Graph

Daily Weather History Graph

Search for Another Location

Airport or City:

Trip Planner

Search our weather history database for the weather conditions in past years. The results will help you decide how hot, cold, wet, or windy it might be!

Date:

Astronomy

Jun. 05, 2013 Rise Set
Actual Time 5:14 AM CDT 8:25 PM CDT
Civil Twilight 4:40 AM CDT 9:00 PM CDT
Nautical Twilight 3:56 AM CDT 9:44 PM CDT
Astronomical Twilight 3:02 AM CDT 10:38 PM CDT
Moon 3:22 AM CDT (6/5) 5:49 PM CDT (6/5)
Length of Visible Light 16h 19m
Length of Day
15h 11m
Waning Crescent, 8% of the Moon is Illuminated
Jun 5
Waning Crescent
Jun 8
New
Jun 16
First Quarter
Jun 23
Full
Jun 29
Last Quarter

Hourly Weather History & Observations

Time (CDT) Temp. Dew Point Humidity Pressure Visibility Wind Dir Wind Speed Gust Speed Precip Events Conditions
12:53 AM 54.0 °F 44.1 °F 69% 30.14 in 10.0 mi NNE 8.1 mph - N/A   Overcast
1:53 AM 52.0 °F 46.0 °F 80% 30.12 in 10.0 mi NE 4.6 mph - 0.00 in   Mostly Cloudy
2:53 AM 54.0 °F 46.0 °F 75% 30.10 in 10.0 mi NE 5.8 mph - N/A   Overcast
3:53 AM 53.1 °F 46.9 °F 80% 30.12 in 10.0 mi North 4.6 mph - 0.00 in   Overcast
4:53 AM 52.0 °F 46.0 °F 80% 30.11 in 10.0 mi NE 4.6 mph - N/A   Overcast
5:53 AM 53.1 °F 48.0 °F 83% 30.12 in 10.0 mi NE 3.5 mph - N/A   Overcast
6:53 AM 55.9 °F 48.0 °F 75% 30.10 in 10.0 mi East 8.1 mph - N/A   Mostly Cloudy
7:53 AM 57.9 °F 48.0 °F 70% 30.09 in 10.0 mi ESE 6.9 mph - N/A   Mostly Cloudy
8:53 AM 60.1 °F 45.0 °F 57% 30.07 in 10.0 mi ESE 11.5 mph - N/A   Scattered Clouds
9:53 AM 61.0 °F 45.0 °F 56% 30.09 in 10.0 mi ESE 8.1 mph - N/A   Overcast
10:53 AM 60.1 °F 45.0 °F 57% 30.08 in 10.0 mi SE 10.4 mph - N/A   Overcast
11:53 AM 60.1 °F 46.9 °F 62% 30.08 in 10.0 mi East 9.2 mph - N/A   Overcast
12:53 PM 61.0 °F 48.0 °F 62% 30.07 in 10.0 mi East 9.2 mph - N/A   Overcast
1:53 PM 59.0 °F 48.9 °F 69% 30.06 in 10.0 mi East 4.6 mph - 0.00 in   Overcast
2:53 PM 57.9 °F 51.1 °F 78% 30.01 in 10.0 mi East 11.5 mph - 0.02 in Rain Light Rain
3:53 PM 60.1 °F 50.0 °F 69% 30.01 in 10.0 mi East 6.9 mph - 0.00 in Rain Light Rain
4:53 PM 59.0 °F 50.0 °F 72% 30.03 in 10.0 mi North 4.6 mph - 0.00 in   Overcast
5:53 PM 57.0 °F 46.9 °F 69% 30.01 in 10.0 mi NE 6.9 mph - 0.00 in Rain Light Rain
6:53 PM 55.0 °F 46.9 °F 74% 30.00 in 10.0 mi NE 9.2 mph - 0.01 in Rain Light Rain
7:53 PM 55.0 °F 45.0 °F 69% 30.00 in 10.0 mi ENE 6.9 mph - 0.01 in   Overcast
8:53 PM 55.9 °F 45.0 °F 67% 30.01 in 10.0 mi NE 4.6 mph - 0.00 in Rain Light Rain
9:53 PM 54.0 °F 46.9 °F 77% 30.00 in 10.0 mi ENE 5.8 mph - 0.01 in Rain Light Rain
10:53 PM 54.0 °F 46.9 °F 77% 29.99 in 10.0 mi East 6.9 mph - 0.01 in   Mostly Cloudy
11:53 PM 55.0 °F 48.0 °F 77% 29.99 in 10.0 mi ENE 3.5 mph - 0.00 in   Overcast